Humidity-temperature Sensor

Selected Measurement Type: Relative Humidity

 
Relative Humidity [%]     6 entries per hour
Showing data from 4/8/2021 (00:00:00 Z) to 4/5/2021 (00:01:00 Z)
Previous Next [ Day | 3-Days | 7-Days ]
First Last
Prev [ Day | 3-Days | 7-Days ] Next
First Last

Start Time:     :
End Time:     :     
Time (in GMT) :00 :50 :40 :30 :20 :10
Previous Next [ Day | 3-Days | 7-Days ]
First Last
Prev [ Day | 3-Days | 7-Days ] Next
First Last


123 => good data
MM => data is determined as missing
-- => data not received/configured
Back to Top Back to Top
4/8/2021 00:00 to 23:10 76.64 76.07 76.27 76.58 76.48 76.87
4/7/2021 23:00 to 22:10 76.83 76.78 77.05 77.07 76.25 76.83
4/7/2021 22:00 to 21:10 76.81 77.71 77.96 78.02 78.37 78.18
4/7/2021 21:00 to 20:10 79.19 79.54 79.95 80.89 81.26 81.41
4/7/2021 20:00 to 19:10 82.00 82.11 82.05 82.76 83.48 83.71
4/7/2021 19:00 to 18:10 83.20 83.28 83.65 84.10 84.78 85.11
4/7/2021 18:00 to 17:10 85.48 85.64 86.01 85.87 86.20 85.83
4/7/2021 17:00 to 16:10 85.87 85.74 86.13 86.50 86.59 86.63
4/7/2021 16:00 to 15:10 87.04 87.51 87.66 87.72 87.82 87.88
4/7/2021 15:00 to 14:10 88.00 88.00 88.29 88.64 88.91 89.57
4/7/2021 14:00 to 13:10 89.53 89.44 89.55 89.42 89.61 89.77
4/7/2021 13:00 to 12:10 89.77 90.02 89.61 89.48 89.26 89.18
4/7/2021 12:00 to 11:10 89.42 89.24 89.13 88.95 88.99 88.87
4/7/2021 11:00 to 10:10 88.68 88.54 88.58 88.52 88.54 88.56
4/7/2021 10:00 to 9:10 88.70 88.68 88.66 88.03 87.10 87.29
4/7/2021 09:00 to 8:10 88.03 88.64 89.50 90.57 91.05 91.87
4/7/2021 08:00 to 7:10 92.44 93.29 93.29 93.16 93.31 93.51
4/7/2021 07:00 to 6:10 93.51 92.94 91.99 90.78 89.87 89.98
4/7/2021 06:00 to 5:10 90.00 90.04 89.65 89.90 89.79 89.55
4/7/2021 05:00 to 4:10 89.46 89.57 89.63 89.67 89.75 89.94
4/7/2021 04:00 to 3:10 90.22 90.90 90.94 90.72 90.72 90.98
4/7/2021 03:00 to 2:10 91.09 91.15 91.23 90.88 90.51 90.49
4/7/2021 02:00 to 1:10 90.45 90.88 91.05 91.09 90.80 90.53
4/7/2021 01:00 to 0:10 89.81 89.79 89.67 89.36 89.26 88.93
4/7/2021 00:00 to 23:10 88.60 87.57 87.31 86.77 86.28 86.24
4/6/2021 23:00 to 22:10 86.83 86.79 86.55 85.85 84.88 85.54
4/6/2021 22:00 to 21:10 85.00 84.12 84.12 84.70 84.74 85.05
4/6/2021 21:00 to 20:10 85.31 85.39 85.35 85.07 85.00 84.90
4/6/2021 20:00 to 19:10 85.46 85.85 85.58 86.07 86.67 88.37
4/6/2021 19:00 to 18:10 90.02 90.76 91.52 92.94 94.23 95.01
4/6/2021 18:00 to 17:10 95.30 95.83 96.14 96.35 96.29 96.04
4/6/2021 17:00 to 16:10 95.98 95.85 96.18 96.35 96.43 96.33
4/6/2021 16:00 to 15:10 96.27 96.55 96.47 96.27 96.39 96.00
4/6/2021 15:00 to 14:10 95.73 95.22 94.23 92.16 91.09 91.60
4/6/2021 14:00 to 13:10 91.99 92.34 92.65 92.81 92.75 92.81
4/6/2021 13:00 to 12:10 92.73 92.77 93.49 93.68 93.90 93.59
4/6/2021 12:00 to 11:10 93.72 93.96 94.85 95.40 95.83 96.35
4/6/2021 11:00 to 10:10 96.90 97.38 97.56 97.50 97.54 97.50
4/6/2021 10:00 to 9:10 97.66 97.40 96.80 95.85 95.22 94.83
4/6/2021 09:00 to 8:10 95.26 95.42 95.67 95.83 95.81 95.98
4/6/2021 08:00 to 7:10 96.06 95.65 95.85 95.85 96.02 96.41
4/6/2021 07:00 to 6:10 96.76 96.92 96.92 96.90 96.51 95.85
4/6/2021 06:00 to 5:10 94.79 93.12 90.86 88.46 87.78 87.80
4/6/2021 05:00 to 4:10 87.76 87.61 87.61 87.47 87.57 87.90
4/6/2021 04:00 to 3:10 88.37 88.77 89.07 89.13 89.03 89.32
4/6/2021 03:00 to 2:10 89.44 90.29 90.88 91.15 90.90 90.66
4/6/2021 02:00 to 1:10 90.63 90.61 90.82 91.52 92.38 93.55
4/6/2021 01:00 to 0:10 94.70 95.18 95.30 95.77 96.20 96.20
4/6/2021 00:00 to 23:10 96.51 96.18 96.39 95.69 94.66 93.49
4/5/2021 23:00 to 22:10 92.61 91.33 91.77 91.60 91.27 90.96
4/5/2021 22:00 to 21:10 90.90 91.46 91.68 91.62 92.20 92.87
4/5/2021 21:00 to 20:10 93.06 93.18 92.98 93.57 93.35 92.92
4/5/2021 20:00 to 19:10 92.28 91.68 91.72 91.46 91.58 90.70
4/5/2021 19:00 to 18:10 89.83 89.55 89.57 89.16 88.74 88.66
4/5/2021 18:00 to 17:10 88.97 89.30 89.26 89.16 89.48 89.20
4/5/2021 17:00 to 16:10 88.00 86.98 86.63 86.75 86.59 86.57
4/5/2021 16:00 to 15:10 86.53 86.18 86.28 86.07 86.11 86.11
4/5/2021 15:00 to 14:10 86.03 86.18 86.30 86.55 86.71 86.46
4/5/2021 14:00 to 13:10 86.11 86.16 86.20 85.93 85.66 85.87
4/5/2021 13:00 to 12:10 86.28 86.40 86.44 86.30 85.97 85.97
4/5/2021 12:00 to 11:10 86.26 86.40 86.11 85.91 85.85 85.46
4/5/2021 11:00 to 10:10 85.27 85.00 84.90 84.66 84.70 84.74
4/5/2021 10:00 to 9:10 85.13 85.46 85.23 84.80 83.94 84.02
4/5/2021 09:00 to 8:10 84.86 85.07 84.66 84.59 84.72 84.18
4/5/2021 08:00 to 7:10 84.08 83.59 82.81 83.18 83.24 83.28
4/5/2021 07:00 to 6:10 83.44 82.17 82.02 82.54 83.79 83.18
4/5/2021 06:00 to 5:10 83.30 83.16 83.09 83.03 82.19 81.61
4/5/2021 05:00 to 4:10 81.14 82.17 81.59 81.72 81.08 81.55
4/5/2021 04:00 to 3:10 81.04 81.59 81.02 79.58 80.94 80.28
4/5/2021 03:00 to 2:10 80.50 80.73 80.01 81.57 82.25 81.53
4/5/2021 02:00 to 1:10 81.02 81.14 80.55 80.75 80.38 78.96
4/5/2021 01:00 to 0:10 79.66 80.94 79.95 79.70 79.95 80.89